| time (UTC) | temp F | wind direction | speed MPH | gust MPH | rain 1hr in | rain 24hr in | rain mn in | humidity % | barometer mb |
| 20260904223525 | 96 | 177 | 6.0 | 14.0 | 0.00 | 0.00 | 0.00 | 40 | 1012.8 |
| 20260904223025 | 96 | 174 | 7.0 | 14.0 | 0.00 | 0.00 | 0.00 | 40 | 1012.9 |
| 20260904222525 | 96 | 171 | 7.0 | 14.0 | 0.00 | 0.00 | 0.00 | 42 | 1012.9 |
| 20260904222004 | 95 | 161 | 7.0 | 14.0 | 0.00 | 0.00 | 0.00 | 43 | 1012.9 |
| 20260904221504 | 95 | 146 | 6.0 | 14.0 | 0.00 | 0.00 | 0.00 | 43 | 1013.0 |
| 20260904221004 | 94 | 153 | 6.0 | 14.0 | 0.00 | 0.00 | 0.00 | 45 | 1012.9 |
| 20260904220504 | 94 | 171 | 7.0 | 14.0 | 0.00 | 0.00 | 0.00 | 47 | 1013.0 |
| 20260904220004 | 94 | 158 | 6.0 | 13.0 | 0.00 | 0.00 | 0.00 | 49 | 1013.0 |
| 20260904215504 | 94 | 131 | 5.0 | 12.0 | 0.00 | 0.00 | 0.00 | 52 | 1013.1 |
| 20260904215004 | 94 | 140 | 6.0 | 12.0 | 0.00 | 0.00 | 0.00 | 52 | 1013.0 |
| 20260904214525 | 95 | 143 | 6.0 | 13.0 | 0.00 | 0.00 | 0.00 | 50 | 1013.1 |
| 20260904214004 | 95 | 130 | 7.0 | 14.0 | 0.00 | 0.00 | 0.00 | 51 | 1013.2 |
| 20260904213504 | 95 | 132 | 7.0 | 14.0 | 0.00 | 0.00 | 0.00 | 52 | 1013.3 |
| 20260904213004 | 95 | 135 | 7.0 | 16.0 | 0.00 | 0.00 | 0.00 | 51 | 1013.4 |
| 20260904212525 | 94 | 137 | 6.0 | 16.0 | 0.00 | 0.00 | 0.00 | 53 | 1013.4 |
| 20260904212004 | 94 | 134 | 6.0 | 14.0 | 0.00 | 0.00 | 0.00 | 55 | 1013.4 |
| 20260904211504 | 93 | 134 | 7.0 | 13.0 | 0.00 | 0.00 | 0.00 | 56 | 1013.4 |
| 20260904211003 | 93 | 152 | 7.0 | 13.0 | 0.00 | 0.00 | 0.00 | 56 | 1013.5 |
| 20260904210504 | 93 | 150 | 7.0 | 13.0 | 0.00 | 0.00 | 0.00 | 55 | 1013.6 |
| 20260904210004 | 93 | 148 | 7.0 | 13.0 | 0.00 | 0.00 | 0.00 | 55 | 1013.7 |
| 20260904205504 | 93 | 133 | 8.0 | 17.0 | 0.00 | 0.00 | 0.00 | 55 | 1013.6 |
| 20260904205004 | 93 | 128 | 8.0 | 17.0 | 0.00 | 0.00 | 0.00 | 53 | 1013.7 |
| 20260904204525 | 93 | 146 | 7.0 | 14.0 | 0.00 | 0.00 | 0.00 | 53 | 1013.8 |
| 20260904204004 | 94 | 143 | 7.0 | 13.0 | 0.00 | 0.00 | 0.00 | 51 | 1013.9 |
| 20260904203525 | 95 | 126 | 7.0 | 13.0 | 0.00 | 0.00 | 0.00 | 50 | 1013.9 |
| 20260904203004 | 95 | 132 | 7.0 | 14.0 | 0.00 | 0.00 | 0.00 | 49 | 1014.0 |
| 20260904202525 | 95 | 135 | 8.0 | 14.0 | 0.00 | 0.00 | 0.00 | 50 | 1013.9 |
| 20260904202003 | 95 | 125 | 8.0 | 16.0 | 0.00 | 0.00 | 0.00 | 49 | 1014.0 |
| 20260904201504 | 96 | 131 | 7.0 | 16.0 | 0.00 | 0.00 | 0.00 | 50 | 1014.0 |
| 20260904201004 | 96 | 142 | 6.0 | 16.0 | 0.00 | 0.00 | 0.00 | 49 | 1014.1 |
| 20260904200524 | 96 | 139 | 5.0 | 14.0 | 0.00 | 0.00 | 0.00 | 52 | 1014.1 |
| 20260904200004 | 95 | 131 | 5.0 | 14.0 | 0.00 | 0.00 | 0.00 | 53 | 1014.2 |
| 20260904195504 | 94 | 146 | 5.0 | 11.0 | 0.00 | 0.00 | 0.00 | 56 | 1014.2 |
| 20260904195004 | 93 | 168 | 4.0 | 10.0 | 0.00 | 0.00 | 0.00 | 57 | 1014.1 |
| 20260904194504 | 93 | 140 | 5.0 | 8.0 | 0.00 | 0.00 | 0.00 | 59 | 1014.2 |
| 20260904194004 | 92 | 120 | 5.0 | 12.0 | 0.00 | 0.00 | 0.00 | 59 | 1014.2 |
| 20260904193503 | 92 | 133 | 5.0 | 12.0 | 0.00 | 0.00 | 0.00 | 60 | 1014.3 |
| 20260904193004 | 92 | 142 | 5.0 | 16.0 | 0.00 | 0.00 | 0.00 | 62 | 1014.3 |
| 20260904192504 | 92 | 127 | 5.0 | 16.0 | 0.00 | 0.00 | 0.00 | 61 | 1014.4 |
| 20260904192004 | 92 | 134 | 5.0 | 12.0 | 0.00 | 0.00 | 0.00 | 61 | 1014.4 |
| 20260904191524 | 92 | 139 | 6.0 | 12.0 | 0.00 | 0.00 | 0.00 | 60 | 1014.5 |
| 20260904191004 | 92 | 138 | 6.0 | 14.0 | 0.00 | 0.00 | 0.00 | 60 | 1014.7 |
| 20260904190504 | 91 | 127 | 5.0 | 14.0 | 0.00 | 0.00 | 0.00 | 64 | 1014.8 |
| 20260904190024 | 91 | 136 | 5.0 | 11.0 | 0.00 | 0.00 | 0.00 | 65 | 1014.8 |
| 20260904185525 | 90 | 136 | 5.0 | 13.0 | 0.00 | 0.00 | 0.00 | 65 | 1014.9 |
| 20260904185025 | 90 | 129 | 5.0 | 13.0 | 0.00 | 0.00 | 0.00 | 66 | 1015.1 |
| 20260904184503 | 89 | 140 | 5.0 | 11.0 | 0.00 | 0.00 | 0.00 | 68 | 1015.1 |
| 20260904184004 | 89 | 128 | 4.0 | 13.0 | 0.00 | 0.00 | 0.00 | 68 | 1015.2 |
| 20260904183504 | 89 | 127 | 4.0 | 13.0 | 0.00 | 0.00 | 0.00 | 69 | 1015.3 |
| 20260904183024 | 89 | 117 | 5.0 | 10.0 | 0.00 | 0.00 | 0.00 | 69 | 1015.4 |
| 20260904182504 | 88 | 107 | 5.0 | 11.0 | 0.00 | 0.00 | 0.00 | 70 | 1015.4 |
| 20260904182003 | 88 | 122 | 5.0 | 11.0 | 0.00 | 0.00 | 0.00 | 70 | 1015.3 |
| 20260904181524 | 88 | 149 | 5.0 | 11.0 | 0.00 | 0.00 | 0.00 | 71 | 1015.3 |
| 20260904181003 | 88 | 148 | 5.0 | 8.0 | 0.00 | 0.00 | 0.00 | 71 | 1015.3 |
| 20260904180503 | 88 | 121 | 5.0 | 8.0 | 0.00 | 0.00 | 0.00 | 72 | 1015.3 |
| 20260904180004 | 87 | 128 | 4.0 | 8.0 | 0.00 | 0.00 | 0.00 | 73 | 1015.4 |
| 20260904175504 | 87 | 148 | 4.0 | 8.0 | 0.00 | 0.00 | 0.00 | 73 | 1015.5 |
| 20260904175003 | 87 | 145 | 5.0 | 10.0 | 0.00 | 0.00 | 0.00 | 73 | 1015.7 |
| 20260904174503 | 86 | 136 | 4.0 | 10.0 | 0.00 | 0.00 | 0.00 | 73 | 1015.7 |
| 20260904174004 | 86 | 130 | 4.0 | 7.0 | 0.00 | 0.00 | 0.00 | 75 | 1015.7 |
| 20260904173503 | 86 | 141 | 4.0 | 8.0 | 0.00 | 0.00 | 0.00 | 75 | 1015.7 |
| 20260904173003 | 86 | 159 | 5.0 | 11.0 | 0.00 | 0.00 | 0.00 | 75 | 1015.8 |
| 20260904172503 | 86 | 160 | 5.0 | 11.0 | 0.00 | 0.00 | 0.00 | 75 | 1015.9 |
| 20260904172004 | 85 | 153 | 5.0 | 10.0 | 0.00 | 0.00 | 0.00 | 76 | 1016.0 |
| 20260904171504 | 85 | 170 | 4.0 | 10.0 | 0.00 | 0.00 | 0.00 | 76 | 1015.9 |
| 20260904171024 | 85 | 186 | 4.0 | 12.0 | 0.00 | 0.00 | 0.00 | 76 | 1015.9 |
| 20260904170504 | 85 | 182 | 5.0 | 12.0 | 0.00 | 0.00 | 0.00 | 76 | 1015.9 |
| 20260904170004 | 85 | 171 | 6.0 | 14.0 | 0.00 | 0.00 | 0.00 | 76 | 1016.0 |
| 20260904165504 | 84 | 173 | 7.0 | 14.0 | 0.00 | 0.00 | 0.00 | 76 | 1015.9 |
| 20260904165024 | 84 | 181 | 6.0 | 13.0 | 0.00 | 0.00 | 0.00 | 77 | 1015.8 |
| 20260904164524 | 84 | 185 | 6.0 | 11.0 | 0.00 | 0.00 | 0.00 | 78 | 1015.9 |
| 20260904164004 | 84 | 183 | 7.0 | 13.0 | 0.00 | 0.00 | 0.00 | 78 | 1015.7 |
| 20260904163524 | 84 | 184 | 7.0 | 13.0 | 0.00 | 0.00 | 0.00 | 79 | 1015.7 |
| 20260904163004 | 84 | 187 | 6.0 | 13.0 | 0.00 | 0.00 | 0.00 | 80 | 1015.7 |
| 20260904162503 | 83 | 190 | 5.0 | 13.0 | 0.00 | 0.00 | 0.00 | 82 | 1015.6 |
| 20260904162004 | 83 | 192 | 7.0 | 16.0 | 0.00 | 0.00 | 0.00 | 82 | 1015.6 |
| 20260904161503 | 83 | 186 | 8.0 | 16.0 | 0.00 | 0.00 | 0.00 | 83 | 1015.6 |
| 20260904161003 | 82 | 180 | 7.0 | 14.0 | 0.00 | 0.00 | 0.00 | 83 | 1015.7 |
| 20260904160524 | 82 | 185 | 6.0 | 11.0 | 0.00 | 0.00 | 0.00 | 85 | 1015.6 |
| 20260904160003 | 82 | 196 | 5.0 | 11.0 | 0.00 | 0.00 | 0.00 | 86 | 1015.6 |
| 20260904155524 | 82 | 199 | 4.0 | 11.0 | 0.00 | 0.00 | 0.00 | 87 | 1015.6 |
| 20260904155003 | 82 | 196 | 4.0 | 8.0 | 0.00 | 0.00 | 0.00 | 87 | 1015.6 |
| 20260904154503 | 82 | 196 | 5.0 | 8.0 | 0.00 | 0.00 | 0.00 | 87 | 1015.6 |
| 20260904154003 | 82 | 196 | 4.0 | 8.0 | 0.00 | 0.00 | 0.00 | 87 | 1015.6 |
| 20260904153503 | 82 | 195 | 4.0 | 8.0 | 0.00 | 0.00 | 0.00 | 87 | 1015.6 |
| 20260904153003 | 82 | 200 | 5.0 | 8.0 | 0.00 | 0.00 | 0.00 | 86 | 1015.7 |
| 20260904152503 | 82 | 204 | 4.0 | 8.0 | 0.00 | 0.00 | 0.00 | 86 | 1015.6 |
| 20260904152003 | 82 | 204 | 4.0 | 6.0 | 0.00 | 0.00 | 0.00 | 86 | 1015.6 |
| 20260904151503 | 82 | 207 | 4.0 | 7.0 | 0.00 | 0.00 | 0.00 | 85 | 1015.7 |
| 20260904151003 | 82 | 199 | 5.0 | 8.0 | 0.00 | 0.00 | 0.00 | 84 | 1015.6 |
| 20260904150503 | 82 | 192 | 4.0 | 8.0 | 0.00 | 0.00 | 0.00 | 84 | 1015.6 |
| 20260904150025 | 82 | 184 | 4.0 | 8.0 | 0.00 | 0.00 | 0.00 | 85 | 1015.6 |
| 20260904145503 | 82 | 170 | 4.0 | 8.0 | 0.00 | 0.00 | 0.00 | 85 | 1015.6 |
| 20260904145003 | 82 | 171 | 4.0 | 6.0 | 0.00 | 0.00 | 0.00 | 85 | 1015.6 |
| 20260904144503 | 82 | 182 | 4.0 | 6.0 | 0.00 | 0.00 | 0.00 | 85 | 1015.7 |
| 20260904144003 | 82 | 180 | 5.0 | 10.0 | 0.00 | 0.00 | 0.00 | 85 | 1015.7 |
| 20260904143503 | 82 | 162 | 4.0 | 10.0 | 0.00 | 0.00 | 0.00 | 86 | 1015.6 |
| 20260904143003 | 82 | 155 | 4.0 | 7.0 | 0.00 | 0.00 | 0.00 | 86 | 1015.5 |
| 20260904142503 | 82 | 169 | 4.0 | 8.0 | 0.00 | 0.00 | 0.00 | 86 | 1015.6 |
| 20260904142003 | 82 | 181 | 4.0 | 8.0 | 0.00 | 0.00 | 0.00 | 87 | 1015.5 |
| 20260904141503 | 81 | 193 | 5.0 | 7.0 | 0.00 | 0.00 | 0.00 | 87 | 1015.5 |
| 20260904141003 | 81 | 189 | 5.0 | 7.0 | 0.00 | 0.00 | 0.00 | 87 | 1015.5 |
| 20260904140524 | 81 | 180 | 4.0 | 7.0 | 0.00 | 0.00 | 0.00 | 87 | 1015.4 |
| 20260904140024 | 81 | 169 | 4.0 | 7.0 | 0.00 | 0.00 | 0.00 | 88 | 1015.5 |
| 20260904135503 | 81 | 163 | 2.0 | 6.0 | 0.00 | 0.00 | 0.00 | 88 | 1015.5 |
| 20260904135003 | 81 | 181 | 2.0 | 7.0 | 0.00 | 0.00 | 0.00 | 89 | 1015.4 |
| 20260904134503 | 81 | 176 | 2.0 | 7.0 | 0.00 | 0.00 | 0.00 | 89 | 1015.3 |
| 20260904134003 | 81 | 131 | 2.0 | 6.0 | 0.00 | 0.00 | 0.00 | 89 | 1015.3 |
| 20260904133503 | 81 | 109 | 2.0 | 5.0 | 0.00 | 0.00 | 0.00 | 89 | 1015.2 |
| 20260904133003 | 81 | 143 | 2.0 | 6.0 | 0.00 | 0.00 | 0.00 | 89 | 1015.2 |
| 20260904132503 | 80 | 162 | 2.0 | 6.0 | 0.00 | 0.00 | 0.00 | 89 | 1015.2 |
| 20260904132003 | 80 | 142 | 2.0 | 5.0 | 0.00 | 0.00 | 0.00 | 89 | 1015.1 |
| 20260904131503 | 80 | 154 | 2.0 | 7.0 | 0.00 | 0.00 | 0.00 | 89 | 1015.1 |
| 20260904131024 | 80 | 149 | 4.0 | 7.0 | 0.00 | 0.00 | 0.00 | 89 | 1015.1 |
| 20260904130503 | 80 | 132 | 4.0 | 6.0 | 0.00 | 0.00 | 0.00 | 89 | 1015.1 |
| 20260904130003 | 80 | 140 | 4.0 | 8.0 | 0.00 | 0.00 | 0.00 | 89 | 1015.0 |
| 20260904125503 | 80 | 151 | 4.0 | 8.0 | 0.00 | 0.00 | 0.00 | 89 | 1015.0 |
| 20260904125003 | 80 | 149 | 4.0 | 8.0 | 0.00 | 0.00 | 0.00 | 89 | 1015.0 |
| 20260904124504 | 80 | 143 | 4.0 | 7.0 | 0.00 | 0.00 | 0.00 | 89 | 1015.0 |
| 20260904124004 | 80 | 151 | 4.0 | 7.0 | 0.00 | 0.00 | 0.00 | 89 | 1014.9 |
| 20260904123504 | 80 | 147 | 5.0 | 8.0 | 0.00 | 0.00 | 0.00 | 89 | 1014.9 |
| 20260904123025 | 80 | 148 | 4.0 | 8.0 | 0.00 | 0.00 | 0.00 | 89 | 1014.9 |
| 20260904122504 | 80 | 147 | 4.0 | 6.0 | 0.00 | 0.00 | 0.00 | 89 | 1014.8 |
| 20260904122004 | 80 | 141 | 4.0 | 8.0 | 0.00 | 0.00 | 0.00 | 89 | 1014.6 |
| 20260904121504 | 80 | 141 | 4.0 | 10.0 | 0.00 | 0.00 | 0.00 | 89 | 1014.5 |
| 20260904121004 | 80 | 133 | 5.0 | 10.0 | 0.00 | 0.00 | 0.00 | 89 | 1014.4 |
| 20260904120504 | 80 | 130 | 5.0 | 10.0 | 0.00 | 0.00 | 0.00 | 89 | 1014.4 |
| 20260904120004 | 80 | 123 | 5.0 | 11.0 | 0.00 | 0.00 | 0.00 | 89 | 1014.3 |
| 20260904115504 | 80 | 119 | 5.0 | 11.0 | 0.00 | 0.00 | 0.00 | 89 | 1014.4 |
| 20260904115025 | 80 | 121 | 5.0 | 11.0 | 0.00 | 0.00 | 0.00 | 89 | 1014.3 |
| 20260904114525 | 80 | 123 | 5.0 | 11.0 | 0.00 | 0.00 | 0.00 | 89 | 1014.3 |
| 20260904114004 | 80 | 122 | 5.0 | 10.0 | 0.00 | 0.00 | 0.00 | 89 | 1014.2 |
| 20260904113504 | 80 | 126 | 4.0 | 11.0 | 0.00 | 0.00 | 0.00 | 88 | 1014.2 |
| 20260904113004 | 80 | 134 | 4.0 | 11.0 | 0.00 | 0.00 | 0.00 | 88 | 1014.0 |
| 20260904112504 | 80 | 134 | 4.0 | 11.0 | 0.00 | 0.00 | 0.00 | 88 | 1014.1 |
| 20260904112004 | 80 | 128 | 4.0 | 11.0 | 0.00 | 0.00 | 0.00 | 88 | 1014.1 |
| 20260904111504 | 80 | 122 | 4.0 | 8.0 | 0.00 | 0.00 | 0.00 | 88 | 1014.1 |
| 20260904111004 | 80 | 118 | 5.0 | 10.0 | 0.00 | 0.00 | 0.00 | 88 | 1014.0 |
| 20260904110504 | 80 | 119 | 5.0 | 11.0 | 0.00 | 0.00 | 0.00 | 88 | 1014.0 |
| 20260904110004 | 80 | 118 | 5.0 | 11.0 | 0.00 | 0.00 | 0.00 | 88 | 1014.0 |
| 20260904105504 | 80 | 121 | 5.0 | 10.0 | 0.00 | 0.00 | 0.00 | 88 | 1014.0 |
| 20260904105004 | 80 | 123 | 4.0 | 8.0 | 0.00 | 0.00 | 0.00 | 88 | 1013.8 |
| 20260904104504 | 80 | 125 | 4.0 | 7.0 | 0.00 | 0.00 | 0.00 | 87 | 1013.7 |
| 20260904104004 | 80 | 143 | 4.0 | 7.0 | 0.00 | 0.00 | 0.00 | 87 | 1013.7 |
| 20260904103504 | 80 | 153 | 4.0 | 8.0 | 0.00 | 0.00 | 0.00 | 87 | 1013.6 |
| 20260904103004 | 80 | 154 | 4.0 | 8.0 | 0.00 | 0.00 | 0.00 | 87 | 1013.6 |
| 20260904102504 | 80 | 161 | 4.0 | 6.0 | 0.00 | 0.00 | 0.00 | 87 | 1013.6 |
| 20260904102004 | 80 | 158 | 4.0 | 6.0 | 0.00 | 0.00 | 0.00 | 87 | 1013.6 |
| 20260904101504 | 80 | 162 | 4.0 | 8.0 | 0.00 | 0.00 | 0.00 | 87 | 1013.6 |
| 20260904101025 | 80 | 163 | 4.0 | 8.0 | 0.00 | 0.00 | 0.00 | 87 | 1013.6 |
| 20260904100504 | 80 | 156 | 4.0 | 7.0 | 0.00 | 0.00 | 0.00 | 87 | 1013.6 |
| 20260904100004 | 80 | 157 | 4.0 | 10.0 | 0.00 | 0.00 | 0.00 | 87 | 1013.6 |
| 20260904095525 | 80 | 153 | 4.0 | 10.0 | 0.00 | 0.00 | 0.00 | 87 | 1013.7 |
| 20260904095025 | 80 | 151 | 4.0 | 10.0 | 0.00 | 0.00 | 0.00 | 87 | 1013.7 |
| 20260904094504 | 80 | 162 | 5.0 | 10.0 | 0.00 | 0.00 | 0.00 | 87 | 1013.6 |
| 20260904094004 | 80 | 161 | 5.0 | 11.0 | 0.00 | 0.00 | 0.00 | 87 | 1013.4 |
| 20260904093525 | 80 | 161 | 5.0 | 11.0 | 0.00 | 0.00 | 0.00 | 87 | 1013.5 |
| 20260904093004 | 80 | 174 | 4.0 | 7.0 | 0.00 | 0.00 | 0.00 | 87 | 1013.4 |
| 20260904092504 | 80 | 178 | 4.0 | 7.0 | 0.00 | 0.00 | 0.00 | 86 | 1013.5 |
| 20260904092004 | 80 | 176 | 4.0 | 8.0 | 0.00 | 0.00 | 0.00 | 86 | 1013.4 |
| 20260904091503 | 80 | 173 | 5.0 | 8.0 | 0.00 | 0.00 | 0.00 | 86 | 1013.4 |
| 20260904091025 | 80 | 173 | 4.0 | 8.0 | 0.00 | 0.00 | 0.00 | 86 | 1013.4 |
| 20260904090504 | 80 | 174 | 5.0 | 11.0 | 0.00 | 0.00 | 0.00 | 86 | 1013.3 |
| 20260904090004 | 80 | 170 | 4.0 | 11.0 | 0.00 | 0.00 | 0.00 | 86 | 1013.5 |
| 20260904085504 | 80 | 165 | 4.0 | 7.0 | 0.00 | 0.00 | 0.00 | 86 | 1013.5 |
| 20260904085004 | 80 | 169 | 4.0 | 7.0 | 0.00 | 0.00 | 0.00 | 86 | 1013.5 |
| 20260904084504 | 80 | 171 | 4.0 | 8.0 | 0.00 | 0.00 | 0.00 | 86 | 1013.4 |
| 20260904084004 | 80 | 166 | 5.0 | 10.0 | 0.00 | 0.00 | 0.00 | 86 | 1013.4 |
| 20260904083504 | 80 | 168 | 5.0 | 10.0 | 0.00 | 0.00 | 0.00 | 85 | 1013.4 |
| 20260904083004 | 81 | 172 | 5.0 | 10.0 | 0.00 | 0.00 | 0.00 | 85 | 1013.4 |
| 20260904082504 | 81 | 170 | 5.0 | 10.0 | 0.00 | 0.00 | 0.00 | 85 | 1013.4 |
| 20260904082004 | 81 | 167 | 5.0 | 10.0 | 0.00 | 0.00 | 0.00 | 85 | 1013.4 |
| 20260904081504 | 81 | 173 | 5.0 | 10.0 | 0.00 | 0.00 | 0.00 | 85 | 1013.4 |
| 20260904081025 | 81 | 178 | 5.0 | 11.0 | 0.00 | 0.00 | 0.00 | 84 | 1013.4 |
| 20260904080525 | 81 | 169 | 5.0 | 11.0 | 0.00 | 0.00 | 0.00 | 84 | 1013.4 |
| 20260904080004 | 81 | 170 | 5.0 | 10.0 | 0.00 | 0.00 | 0.00 | 84 | 1013.4 |
| 20260904075504 | 81 | 173 | 6.0 | 11.0 | 0.00 | 0.00 | 0.00 | 84 | 1013.4 |
| 20260904075025 | 81 | 171 | 6.0 | 11.0 | 0.00 | 0.00 | 0.00 | 84 | 1013.5 |
| 20260904074504 | 81 | 171 | 6.0 | 13.0 | 0.00 | 0.00 | 0.00 | 84 | 1013.5 |
| 20260904074024 | 81 | 170 | 6.0 | 13.0 | 0.00 | 0.00 | 0.00 | 84 | 1013.6 |
| 20260904073503 | 81 | 168 | 5.0 | 11.0 | 0.00 | 0.00 | 0.00 | 84 | 1013.7 |
| 20260904073004 | 81 | 170 | 5.0 | 16.0 | 0.00 | 0.00 | 0.00 | 84 | 1013.7 |
| 20260904072504 | 81 | 166 | 6.0 | 16.0 | 0.00 | 0.00 | 0.00 | 84 | 1013.7 |
| 20260904072025 | 81 | 162 | 6.0 | 13.0 | 0.00 | 0.00 | 0.00 | 84 | 1013.8 |
| 20260904071503 | 81 | 165 | 5.0 | 13.0 | 0.00 | 0.00 | 0.00 | 84 | 1013.7 |
| 20260904071003 | 81 | 167 | 5.0 | 11.0 | 0.00 | 0.00 | 0.00 | 84 | 1013.8 |
| 20260904070503 | 81 | 167 | 5.0 | 11.0 | 0.00 | 0.00 | 0.00 | 84 | 1013.8 |
| 20260904070004 | 81 | 167 | 6.0 | 17.0 | 0.00 | 0.00 | 0.00 | 84 | 1013.8 |
| 20260904065504 | 81 | 169 | 6.0 | 17.0 | 0.00 | 0.00 | 0.00 | 84 | 1013.9 |
| 20260904065004 | 81 | 171 | 6.0 | 13.0 | 0.00 | 0.00 | 0.00 | 84 | 1014.0 |
| 20260904064504 | 81 | 172 | 6.0 | 13.0 | 0.00 | 0.00 | 0.00 | 83 | 1014.0 |
| 20260904064003 | 81 | 176 | 6.0 | 12.0 | 0.00 | 0.00 | 0.00 | 83 | 1013.9 |
| 20260904063524 | 81 | 173 | 5.0 | 11.0 | 0.00 | 0.00 | 0.00 | 83 | 1014.0 |
| 20260904063004 | 81 | 160 | 5.0 | 10.0 | 0.00 | 0.00 | 0.00 | 83 | 1014.0 |
| 20260904062504 | 81 | 161 | 5.0 | 11.0 | 0.00 | 0.00 | 0.00 | 83 | 1014.0 |
| 20260904062024 | 81 | 162 | 5.0 | 11.0 | 0.00 | 0.00 | 0.00 | 83 | 1013.9 |
| 20260904061503 | 81 | 160 | 5.0 | 11.0 | 0.00 | 0.00 | 0.00 | 83 | 1013.9 |
| 20260904061004 | 81 | 157 | 5.0 | 11.0 | 0.00 | 0.00 | 0.00 | 83 | 1014.0 |
| 20260904060503 | 81 | 158 | 5.0 | 10.0 | 0.00 | 0.00 | 0.00 | 82 | 1014.0 |
| 20260904060004 | 81 | 159 | 6.0 | 11.0 | 0.00 | 0.00 | 0.00 | 82 | 1014.0 |
| 20260904055504 | 81 | 155 | 6.0 | 12.0 | 0.00 | 0.00 | 0.00 | 82 | 1014.0 |
| 20260904055003 | 81 | 150 | 5.0 | 12.0 | 0.00 | 0.00 | 0.00 | 82 | 1014.0 |
| 20260904054524 | 81 | 153 | 5.0 | 12.0 | 0.00 | 0.00 | 0.00 | 81 | 1014.0 |
| 20260904054003 | 81 | 154 | 5.0 | 12.0 | 0.00 | 0.00 | 0.00 | 81 | 1013.9 |
| 20260904053504 | 81 | 158 | 5.0 | 11.0 | 0.00 | 0.00 | 0.00 | 81 | 1013.9 |
| 20260904053004 | 81 | 151 | 5.0 | 12.0 | 0.00 | 0.00 | 0.00 | 81 | 1013.8 |
| 20260904052503 | 81 | 143 | 5.0 | 12.0 | 0.00 | 0.00 | 0.00 | 80 | 1013.8 |
| 20260904052024 | 81 | 143 | 5.0 | 10.0 | 0.00 | 0.00 | 0.00 | 80 | 1013.8 |
| 20260904051525 | 81 | 139 | 5.0 | 10.0 | 0.00 | 0.00 | 0.00 | 80 | 1013.8 |
| 20260904051003 | 81 | 135 | 5.0 | 10.0 | 0.00 | 0.00 | 0.00 | 80 | 1013.8 |
| 20260904050504 | 81 | 138 | 4.0 | 8.0 | 0.00 | 0.00 | 0.00 | 80 | 1013.7 |
| 20260904050004 | 81 | 136 | 4.0 | 8.0 | 0.00 | 0.00 | 0.00 | 80 | 1013.7 |
| 20260904045503 | 81 | 139 | 4.0 | 10.0 | 0.00 | 0.00 | 0.00 | 80 | 1013.7 |
| 20260904045004 | 81 | 139 | 5.0 | 10.0 | 0.00 | 0.00 | 0.00 | 79 | 1013.8 |
| 20260904044504 | 81 | 132 | 5.0 | 10.0 | 0.00 | 0.00 | 0.00 | 79 | 1013.8 |
| 20260904044003 | 81 | 131 | 4.0 | 10.0 | 0.00 | 0.00 | 0.00 | 79 | 1013.7 |
| 20260904043504 | 81 | 126 | 5.0 | 8.0 | 0.00 | 0.00 | 0.00 | 79 | 1013.7 |
| 20260904043004 | 81 | 122 | 5.0 | 8.0 | 0.00 | 0.00 | 0.00 | 79 | 1013.7 |
| 20260904042503 | 81 | 121 | 5.0 | 11.0 | 0.00 | 0.00 | 0.00 | 78 | 1013.6 |
| 20260904042024 | 81 | 123 | 6.0 | 11.0 | 0.00 | 0.00 | 0.00 | 78 | 1013.7 |
| 20260904041503 | 81 | 125 | 5.0 | 11.0 | 0.00 | 0.00 | 0.00 | 78 | 1013.6 |
| 20260904041003 | 82 | 128 | 5.0 | 11.0 | 0.00 | 0.00 | 0.00 | 78 | 1013.6 |
| 20260904040503 | 82 | 131 | 5.0 | 11.0 | 0.00 | 0.00 | 0.00 | 77 | 1013.7 |
| 20260904040003 | 82 | 130 | 5.0 | 12.0 | 0.00 | 0.00 | 0.00 | 77 | 1013.6 |
| 20260904035503 | 82 | 127 | 5.0 | 12.0 | 0.00 | 0.00 | 0.00 | 77 | 1013.6 |
| 20260904035004 | 82 | 118 | 4.0 | 10.0 | 0.00 | 0.00 | 0.00 | 77 | 1013.6 |
| 20260904034525 | 82 | 112 | 4.0 | 8.0 | 0.00 | 0.00 | 0.00 | 77 | 1013.6 |
| 20260904034003 | 82 | 114 | 4.0 | 8.0 | 0.00 | 0.00 | 0.00 | 76 | 1013.7 |
| 20260904033503 | 82 | 117 | 4.0 | 10.0 | 0.00 | 0.00 | 0.00 | 76 | 1013.7 |
| 20260904033003 | 82 | 114 | 4.0 | 10.0 | 0.00 | 0.00 | 0.00 | 76 | 1013.5 |
| 20260904032503 | 83 | 113 | 5.0 | 10.0 | 0.00 | 0.00 | 0.00 | 76 | 1013.4 |
| 20260904032024 | 83 | 111 | 5.0 | 12.0 | 0.00 | 0.00 | 0.00 | 75 | 1013.3 |
| 20260904031503 | 83 | 112 | 6.0 | 12.0 | 0.00 | 0.00 | 0.00 | 75 | 1013.4 |
| 20260904031003 | 83 | 114 | 6.0 | 12.0 | 0.00 | 0.00 | 0.00 | 75 | 1013.2 |
| 20260904030503 | 83 | 116 | 5.0 | 11.0 | 0.00 | 0.00 | 0.00 | 74 | 1013.2 |
| 20260904030003 | 83 | 113 | 5.0 | 11.0 | 0.00 | 0.00 | 0.00 | 74 | 1013.1 |
| 20260904025503 | 84 | 113 | 5.0 | 11.0 | 0.00 | 0.00 | 0.00 | 73 | 1013.1 |
| 20260904025024 | 84 | 113 | 5.0 | 11.0 | 0.00 | 0.00 | 0.00 | 73 | 1013.1 |
| 20260904024524 | 84 | 114 | 5.0 | 10.0 | 0.00 | 0.00 | 0.00 | 72 | 1013.1 |
| 20260904024003 | 84 | 108 | 5.0 | 13.0 | 0.00 | 0.00 | 0.00 | 72 | 1013.0 |
| 20260904023504 | 84 | 105 | 6.0 | 13.0 | 0.00 | 0.00 | 0.00 | 72 | 1012.9 |
| 20260904023003 | 84 | 112 | 6.0 | 11.0 | 0.00 | 0.00 | 0.00 | 71 | 1012.8 |
| 20260904022503 | 84 | 108 | 6.0 | 13.0 | 0.00 | 0.00 | 0.00 | 71 | 1012.9 |
| 20260904022025 | 84 | 104 | 6.0 | 13.0 | 0.00 | 0.00 | 0.00 | 71 | 1012.9 |
| 20260904021503 | 85 | 102 | 4.0 | 10.0 | 0.00 | 0.00 | 0.00 | 71 | 1012.9 |
| 20260904021003 | 85 | 103 | 4.0 | 8.0 | 0.00 | 0.00 | 0.00 | 70 | 1012.8 |
| 20260904020524 | 85 | 110 | 5.0 | 11.0 | 0.00 | 0.00 | 0.00 | 70 | 1012.7 |
| 20260904020003 | 85 | 113 | 7.0 | 12.0 | 0.00 | 0.00 | 0.00 | 70 | 1012.4 |
| 20260904015503 | 85 | 113 | 7.0 | 13.0 | 0.00 | 0.00 | 0.00 | 70 | 1012.2 |
| 20260904015024 | 85 | 117 | 6.0 | 13.0 | 0.00 | 0.00 | 0.00 | 70 | 1012.1 |
| 20260904014503 | 85 | 119 | 6.0 | 12.0 | 0.00 | 0.00 | 0.00 | 69 | 1012.0 |
| 20260904014003 | 85 | 117 | 6.0 | 12.0 | 0.00 | 0.00 | 0.00 | 69 | 1012.0 |
| 20260904013503 | 86 | 117 | 6.0 | 14.0 | 0.00 | 0.00 | 0.00 | 69 | 1012.1 |
| 20260904013003 | 86 | 114 | 7.0 | 14.0 | 0.00 | 0.00 | 0.00 | 68 | 1012.1 |
| 20260904012503 | 86 | 117 | 7.0 | 13.0 | 0.00 | 0.00 | 0.00 | 68 | 1012.0 |
| 20260904012003 | 86 | 115 | 8.0 | 17.0 | 0.00 | 0.00 | 0.00 | 68 | 1012.0 |
| 20260904011525 | 86 | 112 | 8.0 | 17.0 | 0.00 | 0.00 | 0.00 | 67 | 1011.9 |
| 20260904011003 | 86 | 114 | 6.0 | 14.0 | 0.00 | 0.00 | 0.00 | 67 | 1012.1 |
| 20260904010503 | 86 | 110 | 6.0 | 16.0 | 0.00 | 0.00 | 0.00 | 66 | 1012.0 |
| 20260904010003 | 87 | 117 | 7.0 | 16.0 | 0.00 | 0.00 | 0.00 | 66 | 1012.0 |
| 20260904005503 | 87 | 121 | 8.0 | 16.0 | 0.00 | 0.00 | 0.00 | 65 | 1012.0 |
| 20260904005003 | 87 | 116 | 8.0 | 16.0 | 0.00 | 0.00 | 0.00 | 65 | 1012.1 |
| 20260904004503 | 88 | 115 | 7.0 | 16.0 | 0.00 | 0.00 | 0.00 | 64 | 1012.0 |
| 20260904004025 | 88 | 113 | 6.0 | 13.0 | 0.00 | 0.00 | 0.00 | 64 | 1011.9 |
| 20260904003504 | 88 | 110 | 7.0 | 13.0 | 0.00 | 0.00 | 0.00 | 63 | 1011.9 |
| 20260904003004 | 89 | 111 | 7.0 | 16.0 | 0.00 | 0.00 | 0.00 | 63 | 1011.9 |
| 20260904002504 | 89 | 110 | 8.0 | 17.0 | 0.00 | 0.00 | 0.00 | 62 | 1011.9 |
| 20260904002004 | 89 | 109 | 10.0 | 19.0 | 0.00 | 0.00 | 0.00 | 61 | 1011.9 |
| 20260904001504 | 89 | 111 | 8.0 | 19.0 | 0.00 | 0.00 | 0.00 | 61 | 1011.8 |
| 20260904001004 | 89 | 116 | 6.0 | 16.0 | 0.00 | 0.00 | 0.00 | 60 | 1011.8 |
| 20260904000504 | 90 | 114 | 6.0 | 13.0 | 0.00 | 0.00 | 0.00 | 60 | 1011.7 |
| 20260904000004 | 90 | 110 | 7.0 | 17.0 | 0.00 | 0.00 | 0.00 | 60 | 1011.8 |
| 20260903235504 | 90 | 116 | 6.0 | 17.0 | 0.00 | 0.00 | 0.00 | 61 | 1011.9 |
| 20260903235025 | 90 | 123 | 7.0 | 17.0 | 0.00 | 0.00 | 0.00 | 61 | 1011.8 |
| 20260903234504 | 90 | 126 | 8.0 | 17.0 | 0.00 | 0.00 | 0.00 | 59 | 1011.8 |
| 20260903234004 | 91 | 121 | 10.0 | 18.0 | 0.00 | 0.00 | 0.00 | 59 | 1011.8 |
| 20260903233504 | 91 | 119 | 8.0 | 18.0 | 0.00 | 0.00 | 0.00 | 58 | 1011.6 |
| 20260903233004 | 92 | 122 | 8.0 | 17.0 | 0.00 | 0.00 | 0.00 | 58 | 1011.5 |
| 20260903232504 | 92 | 120 | 11.0 | 20.0 | 0.00 | 0.00 | 0.00 | 58 | 1011.4 |
| 20260903232004 | 93 | 117 | 10.0 | 20.0 | 0.00 | 0.00 | 0.00 | 57 | 1011.4 |
| 20260903231504 | 93 | 108 | 10.0 | 24.0 | 0.00 | 0.00 | 0.00 | 57 | 1011.4 |
| 20260903231004 | 94 | 111 | 12.0 | 24.0 | 0.00 | 0.00 | 0.00 | 57 | 1011.3 |
| 20260903230525 | 94 | 117 | 13.0 | 25.0 | 0.00 | 0.00 | 0.00 | 58 | 1011.3 |
| 20260903230004 | 94 | 119 | 13.0 | 26.0 | 0.00 | 0.00 | 0.00 | 57 | 1011.4 |
| 20260903225504 | 94 | 117 | 12.0 | 25.0 | 0.00 | 0.00 | 0.00 | 56 | 1011.0 |
| 20260903225004 | 96 | 109 | 13.0 | 26.0 | 0.00 | 0.00 | 0.00 | 53 | 1011.3 |
| 20260903224525 | 96 | 102 | 11.0 | 26.0 | 0.00 | 0.00 | 0.00 | 50 | 1010.9 |
| 20260903224004 | 97 | 102 | 8.0 | 26.0 | 0.00 | 0.00 | 0.00 | 47 | 1010.7 |